,,Stat1,,Stat2,,Stat3,,Stat4,,Wind1,,Wind1,
time,status,PR1M_SUM,status,RH1M_AVG,status,SR1M_AVG,status,TA1M_AVG,status,W1dAve1m,status,W1sAve1m,
1999-11-13, 00:01:00,VALID,0,VALID,99.998,VALID,0.0509425,VALID,19.4896,VALID,338,VALID,0.435156,
1999-11-13, 00:02:00,VALID,0,VALID,99.9957,VALID,0.0339617,VALID,19.4928,VALID,295,VALID,0.538035,
1999-11-13, 00:03:00,VALID,0,VALID,100,VALID,0.0679233,VALID,19.4861,VALID,170,VALID,0.723684,
1999-11-13, 00:04:00,VALID,0,VALID,100,VALID,0.0339617,VALID,19.5025,VALID,69,VALID,0.578526,
1999-11-13, 00:05:01,VALID,0,VALID,99.9967,VALID,0.0509425,VALID,19.4921,VALID,256,VALID,0.557165,
1999-11-13, 00:06:00,VALID,0,VALID,100,VALID,0.0849042,VALID,19.4988,VALID,234,VALID,0.37862,
1999-11-13, 00:07:00,VALID,0,VALID,99.9947,VALID,0.0339617,VALID,19.4826,VALID,173,VALID,0.445107,
1999-11-13, 00:08:00,VALID,0,VALID,99.998,VALID,0.0679233,VALID,19.4826,VALID,104,VALID,0.357031,
1999-11-13, 00:09:00,VALID,0,VALID,99.999,VALID,0.0679233,VALID,19.4858,VALID,198,VALID,0.284206,
1999-11-13, 00:10:00,VALID,0,VALID,100,VALID,0.0339617,VALID,19.4888,VALID,149,VALID,0.205592,
1999-11-13, 00:11:00,VALID,0,VALID,100,VALID,-0.0169808,VALID,19.504,VALID,65,VALID,0.492188,
1999-11-13, 00:12:00,VALID,0,VALID,100,VALID,-0.0339617,VALID,19.4905,VALID,101,VALID,0.780828,
1999-11-13, 00:13:00,VALID,0,VALID,100,VALID,-0.0169808,VALID,19.497,VALID,86,VALID,1.25226,
1999-11-13, 00:14:00,VALID,0,VALID,100,VALID,-0.0339617,VALID,19.4903,VALID,104,VALID,0.899054,
1999-11-13, 00:15:00,VALID,0,VALID,100,VALID,-0.0169808,VALID,19.5069,VALID,82,VALID,1.18555,
1999-11-13, 00:16:00,VALID,0,VALID,100,VALID,0,VALID,19.5134,VALID,92,VALID,0.403906,
1999-11-13, 00:17:00,VALID,0,VALID,100,VALID,0,VALID,19.5,VALID,94,VALID,0.85293,
1999-11-13, 00:18:00,VALID,0,VALID,100,VALID,-0.0339617,VALID,19.5005,VALID,104,VALID,1.15234,
1999-11-13, 00:19:00,VALID,0,VALID,100,VALID,0,VALID,19.5129,VALID,96,VALID,1.48237,
1999-11-13, 00:20:00,VALID,0,VALID,100,VALID,-0.0169808,VALID,19.5293,VALID,86,VALID,1.11287,
1999-11-13, 00:21:00,VALID,0,VALID,100,VALID,-0.0339617,VALID,19.5229,VALID,73,VALID,0.566016,
1999-11-13, 00:22:00,VALID,0,VALID,100,VALID,0,VALID,19.5129,VALID,65,VALID,0.289714,
1999-11-13, 00:23:00,VALID,0,VALID,100,VALID,-0.0509425,VALID,19.5035,VALID,102,VALID,0.885547,
1999-11-13, 00:24:00,VALID,0,VALID,100,VALID,-0.0339617,VALID,19.4968,VALID,87,VALID,1.2791,
1999-11-13, 00:25:00,VALID,0,VALID,100,VALID,-0.0509425,VALID,19.4841,VALID,83,VALID,1.19852,
1999-11-13, 00:26:00,VALID,0,VALID,100,VALID,-0.0509425,VALID,19.4876,VALID,50,VALID,0.428085,
1999-11-13, 00:27:01,VALID,0,VALID,100,VALID,-0.0509425,VALID,19.4749,VALID,81,VALID,0.982572,
1999-11-13, 00:28:00,VALID,0,VALID,100,VALID,-0.0339617,VALID,19.5042,VALID,104,VALID,0.675,
1999-11-13, 00:29:00,VALID,0,VALID,100,VALID,-0.0339617,VALID,19.5037,VALID,89,VALID,1.51815,
1999-11-13, 00:30:00,VALID,0,VALID,100,VALID,0,VALID,19.4905,VALID,83,VALID,1.18442,
1999-11-13, 00:31:00,VALID,0,VALID,100,VALID,-0.0339617,VALID,19.4873,VALID,107,VALID,1.27438,
1999-11-13, 00:32:00,VALID,0,VALID,100,VALID,-0.0339617,VALID,19.4552,VALID,40,VALID,0.695946,
1999-11-13, 00:33:00,VALID,0,VALID,100,VALID,-0.0509425,VALID,19.4612,VALID,31,VALID,0.455448,
1999-11-13, 00:34:00,VALID,0,VALID,100,VALID,0,VALID,19.4682,VALID,267,VALID,0.406461,
1999-11-13, 00:35:00,VALID,0,VALID,100,VALID,-0.0339617,VALID,19.4517,VALID,241,VALID,0.444712,
1999-11-13, 00:36:00,VALID,0,VALID,100,VALID,-0.0339617,VALID,19.4776,VALID,7,VALID,0.472768,
1999-11-13, 00:37:00,VALID,0,VALID,100,VALID,-0.0509425,VALID,19.4642,VALID,112,VALID,0.635346,
1999-11-13, 00:38:01,VALID,0,VALID,100,VALID,-0.0679233,VALID,19.4684,VALID,80,VALID,1.3491,
1999-11-13, 00:39:00,VALID,0,VALID,100,VALID,-0.0169808,VALID,19.4744,VALID,84,VALID,0.470084,
1999-11-13, 00:40:00,VALID,0,VALID,100,VALID,-0.0509425,VALID,19.458,VALID,171,VALID,0.43051,
1999-11-13, 00:41:00,VALID,0,VALID,100,VALID,-0.0339617,VALID,19.4711,VALID,105,VALID,1.2096,
1999-11-13, 00:42:00,VALID,0,VALID,100,VALID,0,VALID,19.4836,VALID,102,VALID,0.677591,
1999-11-13, 00:43:00,VALID,0,VALID,100,VALID,-0.0339617,VALID,19.4841,VALID,95,VALID,0.476357,
1999-11-13, 00:44:00,VALID,0,VALID,100,VALID,-0.0339617,VALID,19.4711,VALID,150,VALID,0.614062,
1999-11-13, 00:45:00,VALID,0,VALID,100,VALID,-0.0169808,VALID,19.4614,VALID,82,VALID,0.431377,
1999-11-13, 00:46:00,VALID,0,VALID,100,VALID,-0.0339617,VALID,19.4711,VALID,94,VALID,0.623766,
1999-11-13, 00:47:00,VALID,0,VALID,100,VALID,-0.0339617,VALID,19.4746,VALID,93,VALID,0.562901,
1999-11-13, 00:48:00,VALID,0,VALID,100,VALID,0,VALID,19.4679,VALID,162,VALID,0.0418074,
1999-11-13, 00:49:01,VALID,0,VALID,100,VALID,0,VALID,19.4383,VALID,333,VALID,0.251028,
1999-11-13, 00:50:00,VALID,0,VALID,100,VALID,-0.0169808,VALID,19.4353,VALID,333,VALID,0.153372,
1999-11-13, 00:51:00,VALID,0,VALID,100,VALID,0,VALID,19.442,VALID,299,VALID,0.0384766,
1999-11-13, 00:52:00,VALID,0,VALID,100,VALID,-0.0169808,VALID,19.4316,VALID,94,VALID,0.709375,
1999-11-13, 00:53:00,VALID,0,VALID,100,VALID,-0.0339617,VALID,19.4515,VALID,287,VALID,0.413281,
1999-11-13, 00:54:00,VALID,0,VALID,100,VALID,-0.0169808,VALID,19.4458,VALID,241,VALID,0.0682566,
1999-11-13, 00:55:00,VALID,0,VALID,100,VALID,-0.0509425,VALID,19.445,VALID,202,VALID,0.0176282,
1999-11-13, 00:56:00,VALID,0,VALID,100,VALID,0,VALID,19.4488,VALID,241,VALID,0.0962171,
1999-11-13, 00:57:00,VALID,0,VALID,100,VALID,-0.0169808,VALID,19.4455,VALID,351,VALID,0.0015625,
1999-11-13, 00:58:00,VALID,0,VALID,100,VALID,-0.0509425,VALID,19.4353,VALID,31,VALID,0,
1999-11-13, 00:59:00,VALID,0,VALID,100,VALID,-0.0169808,VALID,19.4485,VALID,90,VALID,0.670117,
1999-11-13, 01:00:01,VALID,0,VALID,100,VALID,-0.0339617,VALID,19.458,VALID,100,VALID,0.919141,
1999-11-13, 01:01:00,VALID,0,VALID,100,VALID,-0.0509425,VALID,19.4517,VALID,89,VALID,0.911659,
1999-11-13, 01:02:00,VALID,0,VALID,100,VALID,-0.0509425,VALID,19.4323,VALID,92,VALID,0.939103,
1999-11-13, 01:03:00,VALID,0,VALID,100,VALID,-0.0169808,VALID,19.4167,VALID,90,VALID,1.6859,
1999-11-13, 01:04:00,VALID,0,VALID,99.999,VALID,-0.0339617,VALID,19.4003,VALID,81,VALID,1.54492,
1999-11-13, 01:05:00,VALID,0,VALID,99.998,VALID,-0.0339617,VALID,19.3806,VALID,75,VALID,1.24862,
1999-11-13, 01:06:00,VALID,0,VALID,99.985,VALID,-0.0509425,VALID,19.3582,VALID,63,VALID,0.719572,
1999-11-13, 01:07:00,VALID,0,VALID,99.9911,VALID,-0.0339617,VALID,19.3555,VALID,73,VALID,1.13447,
1999-11-13, 01:08:00,VALID,0,VALID,99.9977,VALID,-0.0339617,VALID,19.3418,VALID,90,VALID,1.28294,
1999-11-13, 01:09:00,VALID,0,VALID,99.999,VALID,-0.0169808,VALID,19.3513,VALID,95,VALID,1.34649,
1999-11-13, 01:10:01,VALID,0,VALID,100,VALID,-0.0169808,VALID,19.3714,VALID,88,VALID,1.15963,
1999-11-13, 01:11:01,VALID,0,VALID,100,VALID,0,VALID,19.3871,VALID,96,VALID,1.34014,
1999-11-13, 01:12:00,VALID,0,VALID,100,VALID,0,VALID,19.4,VALID,92,VALID,1.13817,
1999-11-13, 01:13:00,VALID,0,VALID,100,VALID,-0.0169808,VALID,19.404,VALID,96,VALID,1.37458,
1999-11-13, 01:14:00,VALID,0,VALID,100,VALID,-0.0169808,VALID,19.3742,VALID,92,VALID,0.960938,
1999-11-13, 01:15:00,VALID,0,VALID,99.9977,VALID,0,VALID,19.3871,VALID,352,VALID,0.406822,
1999-11-13, 01:16:00,VALID,0,VALID,99.998,VALID,0,VALID,19.3543,VALID,59,VALID,1.38713,
1999-11-13, 01:17:00,VALID,0,VALID,100,VALID,0,VALID,19.3513,VALID,94,VALID,1.41997,
1999-11-13, 01:18:00,VALID,0,VALID,100,VALID,-0.0169808,VALID,19.3642,VALID,101,VALID,1.01696,
1999-11-13, 01:19:00,VALID,0.2,VALID,100,VALID,0,VALID,19.3774,VALID,99,VALID,1.25267,
1999-11-13, 01:20:00,VALID,0,VALID,100,VALID,-0.0169808,VALID,19.3704,VALID,63,VALID,0.526563,
1999-11-13, 01:21:00,VALID,0,VALID,99.999,VALID,0,VALID,19.351,VALID,75,VALID,0.530828,
1999-11-13, 01:22:00,VALID,0.2,VALID,99.998,VALID,0,VALID,19.3349,VALID,58,VALID,0.305304,
1999-11-13, 01:23:00,VALID,0,VALID,100,VALID,0,VALID,19.3411,VALID,92,VALID,0.502604,
1999-11-13, 01:24:00,VALID,0,VALID,100,VALID,0,VALID,19.3478,VALID,51,VALID,0.548142,
1999-11-13, 01:25:00,VALID,0.2,VALID,99.9771,VALID,0.0169808,VALID,19.3351,VALID,309,VALID,0.6544,
1999-11-13, 01:26:00,VALID,0.4,VALID,99.9774,VALID,0,VALID,19.3157,VALID,321,VALID,0.280633,
1999-11-13, 01:27:00,VALID,0.2,VALID,99.9868,VALID,0,VALID,19.306,VALID,320,VALID,0,
1999-11-13, 01:28:00,VALID,0,VALID,100,VALID,0,VALID,19.3287,VALID,332,VALID,0,
1999-11-13, 01:29:00,VALID,0.2,VALID,99.9977,VALID,0,VALID,19.3478,VALID,211,VALID,0.329297,
1999-11-13, 01:30:00,VALID,0,VALID,99.987,VALID,-0.0169808,VALID,19.3358,VALID,113,VALID,0.516036,
1999-11-13, 01:31:00,VALID,0.2,VALID,99.9893,VALID,-0.0339617,VALID,19.3055,VALID,295,VALID,0.342147,
1999-11-13, 01:32:00,VALID,0,VALID,99.9934,VALID,0,VALID,19.306,VALID,162,VALID,0.4706,
1999-11-13, 01:33:00,VALID,0,VALID,100,VALID,0,VALID,19.3192,VALID,97,VALID,0.996094,
1999-11-13, 01:34:00,VALID,0,VALID,100,VALID,0.0169808,VALID,19.306,VALID,14,VALID,0.820313,
1999-11-13, 01:35:00,VALID,0,VALID,100,VALID,-0.0339617,VALID,19.306,VALID,232,VALID,0.630078,
1999-11-13, 01:36:00,VALID,0,VALID,100,VALID,-0.0169808,VALID,19.3421,VALID,109,VALID,1.33262,
1999-11-13, 01:37:00,VALID,0,VALID,100,VALID,-0.0169808,VALID,19.3418,VALID,92,VALID,0.691506,
1999-11-13, 01:38:00,VALID,0,VALID,100,VALID,-0.0339617,VALID,19.3254,VALID,13,VALID,0.389824,
1999-11-13, 01:39:00,VALID,0,VALID,100,VALID,0,VALID,19.3,VALID,235,VALID,0.405449,
1999-11-13, 01:40:00,VALID,0,VALID,100,VALID,0,VALID,19.2931,VALID,135,VALID,1.15,
1999-11-13, 01:41:00,VALID,0,VALID,100,VALID,0.0849042,VALID,19.2889,VALID,99,VALID,1.75414,
1999-11-13, 01:42:00,VALID,0,VALID,100,VALID,0.101885,VALID,19.3085,VALID,98,VALID,1.78639,
1999-11-13, 01:43:01,VALID,0,VALID,100,VALID,0.0679233,VALID,19.3053,VALID,94,VALID,2.66501,
1999-11-13, 01:44:00,VALID,0,VALID,100,VALID,0.101885,VALID,19.2499,VALID,94,VALID,2.8334,
1999-11-13, 01:45:00,VALID,0,VALID,100,VALID,0.101885,VALID,19.2108,VALID,93,VALID,2.12838,
1999-11-13, 01:46:00,VALID,0,VALID,100,VALID,0.101885,VALID,19.221,VALID,64,VALID,1.13361,
1999-11-13, 01:47:00,VALID,0,VALID,100,VALID,0.0849042,VALID,19.2111,VALID,50,VALID,0.942107,
1999-11-13, 01:48:00,VALID,0,VALID,99.9908,VALID,0.101885,VALID,19.1333,VALID,94,VALID,2.65558,
1999-11-13, 01:49:00,VALID,0,VALID,99.9507,VALID,0.0849042,VALID,19.0723,VALID,87,VALID,2.43074,
1999-11-13, 01:50:00,VALID,0,VALID,99.9723,VALID,0.101885,VALID,19.0328,VALID,86,VALID,2.41941,
1999-11-13, 01:51:00,VALID,0,VALID,99.9697,VALID,0.101885,VALID,19.0137,VALID,96,VALID,2.96475,
1999-11-13, 01:52:00,VALID,0,VALID,100,VALID,0.0849042,VALID,19.0072,VALID,92,VALID,2.30613,
1999-11-13, 01:53:00,VALID,0,VALID,100,VALID,0.101885,VALID,19.0079,VALID,94,VALID,1.48876,
1999-11-13, 01:54:00,VALID,0,VALID,99.9891,VALID,0.101885,VALID,18.9716,VALID,53,VALID,1.49676,
1999-11-13, 01:55:00,VALID,0,VALID,99.9822,VALID,0.0849042,VALID,18.9358,VALID,86,VALID,2.21279,
1999-11-13, 01:56:00,VALID,0,VALID,99.999,VALID,0,VALID,18.9445,VALID,83,VALID,1.68379,
1999-11-13, 01:57:00,VALID,0,VALID,100,VALID,0,VALID,18.9415,VALID,83,VALID,1.53315,
1999-11-13, 01:58:00,VALID,0,VALID,100,VALID,-0.0169808,VALID,18.9313,VALID,97,VALID,1.59786,
1999-11-13, 01:59:00,VALID,0,VALID,100,VALID,0,VALID,18.9151,VALID,68,VALID,1.83133,
1999-11-13, 02:00:00,VALID,0,VALID,100,VALID,0,VALID,18.9154,VALID,83,VALID,1.58488,
1999-11-13, 02:01:00,VALID,0,VALID,100,VALID,-0.0169808,VALID,18.902,VALID,52,VALID,0.970189,
1999-11-13, 02:02:00,VALID,0,VALID,100,VALID,0,VALID,18.8763,VALID,82,VALID,0.676192,
1999-11-13, 02:03:00,VALID,0,VALID,100,VALID,-0.0169808,VALID,18.8793,VALID,91,VALID,0.77793,
1999-11-13, 02:04:00,VALID,0,VALID,100,VALID,0,VALID,18.889,VALID,91,VALID,1.32324,
1999-11-13, 02:05:00,VALID,0.2,VALID,100,VALID,0.0169808,VALID,18.8858,VALID,59,VALID,1.12168,
1999-11-13, 02:06:00,VALID,0,VALID,100,VALID,0,VALID,18.8803,VALID,90,VALID,1.95127,
1999-11-13, 02:07:00,VALID,0,VALID,100,VALID,0,VALID,18.8733,VALID,88,VALID,1.74259,
1999-11-13, 02:08:00,VALID,0,VALID,100,VALID,0,VALID,18.88,VALID,92,VALID,1.71813,
1999-11-13, 02:09:00,VALID,0,VALID,100,VALID,0,VALID,18.841,VALID,97,VALID,1.28652,
1999-11-13, 02:10:00,VALID,0,VALID,100,VALID,-0.0169808,VALID,18.8417,VALID,55,VALID,0.650174,
1999-11-13, 02:11:00,VALID,0,VALID,100,VALID,-0.0339617,VALID,18.8348,VALID,99,VALID,1.4502,
1999-11-13, 02:12:00,VALID,0,VALID,100,VALID,0,VALID,18.8186,VALID,84,VALID,2.04707,
1999-11-13, 02:13:00,VALID,0,VALID,100,VALID,0,VALID,18.8221,VALID,87,VALID,2.16126,
1999-11-13, 02:14:00,VALID,0,VALID,100,VALID,-0.0339617,VALID,18.8221,VALID,82,VALID,1.93349,
1999-11-13, 02:15:00,VALID,0,VALID,100,VALID,0,VALID,18.8186,VALID,75,VALID,1.67929,
1999-11-13, 02:16:00,VALID,0,VALID,100,VALID,0,VALID,18.8186,VALID,76,VALID,1.3873,
1999-11-13, 02:17:00,VALID,0,VALID,100,VALID,-0.0169808,VALID,18.8062,VALID,74,VALID,2.09881,
1999-11-13, 02:18:00,VALID,0,VALID,100,VALID,-0.0339617,VALID,18.8062,VALID,64,VALID,1.60979,
1999-11-13, 02:19:00,VALID,0,VALID,100,VALID,0,VALID,18.7699,VALID,80,VALID,2.32339,
1999-11-13, 02:20:00,VALID,0,VALID,100,VALID,-0.0169808,VALID,18.7836,VALID,92,VALID,1.90709,
1999-11-13, 02:21:00,VALID,0,VALID,100,VALID,-0.0339617,VALID,18.8062,VALID,94,VALID,2.1459,
1999-11-13, 02:22:00,VALID,0,VALID,100,VALID,-0.0339617,VALID,18.8186,VALID,90,VALID,2.22318,
1999-11-13, 02:23:00,VALID,0,VALID,100,VALID,-0.0169808,VALID,18.8226,VALID,77,VALID,2.07873,
1999-11-13, 02:24:00,VALID,0,VALID,100,VALID,-0.0679233,VALID,18.8062,VALID,95,VALID,2.38661,
1999-11-13, 02:25:00,VALID,0,VALID,100,VALID,-0.0169808,VALID,18.787,VALID,82,VALID,2.4185,
1999-11-13, 02:26:00,VALID,0,VALID,100,VALID,0,VALID,18.7734,VALID,94,VALID,1.77303,
1999-11-13, 02:27:00,VALID,0,VALID,100,VALID,-0.0339617,VALID,18.7764,VALID,102,VALID,2.68521,
1999-11-13, 02:28:00,VALID,0,VALID,100,VALID,0,VALID,18.7639,VALID,64,VALID,2.1435,
1999-11-13, 02:29:00,VALID,0,VALID,100,VALID,0,VALID,18.7413,VALID,87,VALID,1.62252,
1999-11-13, 02:30:00,VALID,0,VALID,100,VALID,0,VALID,18.7607,VALID,90,VALID,1.39177,
1999-11-13, 02:31:00,VALID,0,VALID,100,VALID,-0.0169808,VALID,18.7736,VALID,83,VALID,2.30962,
1999-11-13, 02:32:00,VALID,0,VALID,100,VALID,0,VALID,18.7803,VALID,95,VALID,3.29297,
1999-11-13, 02:33:00,VALID,0,VALID,100,VALID,0,VALID,18.7803,VALID,94,VALID,1.95524,
1999-11-13, 02:34:00,VALID,0,VALID,100,VALID,0,VALID,18.7967,VALID,92,VALID,2.00082,
1999-11-13, 02:35:00,VALID,0,VALID,100,VALID,0,VALID,18.796,VALID,91,VALID,2.19671,
1999-11-13, 02:36:00,VALID,0,VALID,100,VALID,0,VALID,18.7965,VALID,82,VALID,2.28505,
1999-11-13, 02:37:00,VALID,0,VALID,100,VALID,-0.0339617,VALID,18.7736,VALID,99,VALID,2.10567,
1999-11-13, 02:38:01,VALID,0,VALID,100,VALID,0,VALID,18.7898,VALID,93,VALID,1.86657,
1999-11-13, 02:39:00,VALID,0,VALID,100,VALID,0,VALID,18.8062,VALID,80,VALID,1.23008,
1999-11-13, 02:40:00,VALID,0,VALID,100,VALID,-0.0169808,VALID,18.7736,VALID,64,VALID,1.14883,
1999-11-13, 02:41:00,VALID,0,VALID,100,VALID,0,VALID,18.7505,VALID,56,VALID,1.86563,
1999-11-13, 02:42:00,VALID,0,VALID,100,VALID,0,VALID,18.7443,VALID,83,VALID,1.80942,
1999-11-13, 02:43:00,VALID,0,VALID,100,VALID,0,VALID,18.754,VALID,104,VALID,1.60397,
1999-11-13, 02:44:00,VALID,0,VALID,100,VALID,0,VALID,18.7806,VALID,93,VALID,1.11369,
1999-11-13, 02:45:00,VALID,0,VALID,100,VALID,-0.0169808,VALID,18.7764,VALID,95,VALID,1.40684,
1999-11-13, 02:46:00,VALID,0,VALID,100,VALID,0,VALID,18.7768,VALID,89,VALID,1.43967,
1999-11-13, 02:47:00,VALID,0,VALID,100,VALID,0,VALID,18.7706,VALID,56,VALID,1.75762,
1999-11-13, 02:48:00,VALID,0,VALID,100,VALID,-0.0169808,VALID,18.7545,VALID,101,VALID,1.16211,
1999-11-13, 02:49:00,VALID,0,VALID,100,VALID,0,VALID,18.7709,VALID,110,VALID,1.11538,
1999-11-13, 02:50:00,VALID,0,VALID,100,VALID,-0.0339617,VALID,18.7739,VALID,96,VALID,1.21234,
1999-11-13, 02:51:00,VALID,0,VALID,100,VALID,-0.0169808,VALID,18.7967,VALID,104,VALID,0.741386,
1999-11-13, 02:52:00,VALID,0,VALID,100,VALID,-0.0169808,VALID,18.7997,VALID,83,VALID,0.651953,
1999-11-13, 02:53:00,VALID,0,VALID,100,VALID,-0.0169808,VALID,18.7865,VALID,119,VALID,0.563189,
1999-11-13, 02:54:00,VALID,0,VALID,100,VALID,0,VALID,18.79,VALID,100,VALID,0.0990954,
1999-11-13, 02:55:00,VALID,0,VALID,100,VALID,0,VALID,18.7771,VALID,79,VALID,0.316761,
1999-11-13, 02:56:00,VALID,0,VALID,100,VALID,-0.0509425,VALID,18.7676,VALID,81,VALID,0.56799,
1999-11-13, 02:57:00,VALID,0,VALID,100,VALID,-0.0509425,VALID,18.781,VALID,71,VALID,0.26288,
1999-11-13, 02:58:00,VALID,0,VALID,100,VALID,-0.0509425,VALID,18.7773,VALID,70,VALID,0.0209037,
1999-11-13, 02:59:00,VALID,0,VALID,100,VALID,-0.0169808,VALID,18.7873,VALID,78,VALID,0.161659,
1999-11-13, 03:00:01,VALID,0,VALID,100,VALID,-0.0679233,VALID,18.7905,VALID,108,VALID,0.908259,
1999-11-13, 03:01:00,VALID,0,VALID,100,VALID,-0.0509425,VALID,18.8136,VALID,74,VALID,0.866976,
1999-11-13, 03:02:00,VALID,0,VALID,100,VALID,-0.0509425,VALID,18.8059,VALID,67,VALID,0.317023,
1999-11-13, 03:03:00,VALID,0,VALID,100,VALID,0,VALID,18.8096,VALID,98,VALID,1.04364,
1999-11-13, 03:04:00,VALID,0,VALID,100,VALID,-0.0679233,VALID,18.8163,VALID,92,VALID,1.5109,
1999-11-13, 03:05:00,VALID,0,VALID,100,VALID,-0.0679233,VALID,18.8171,VALID,70,VALID,0.633956,
1999-11-13, 03:06:00,VALID,0,VALID,100,VALID,-0.0509425,VALID,18.8002,VALID,69,VALID,0,
1999-11-13, 03:07:00,VALID,0,VALID,100,VALID,-0.0509425,VALID,18.7935,VALID,89,VALID,0.559211,
1999-11-13, 03:08:00,VALID,0,VALID,100,VALID,-0.0509425,VALID,18.8032,VALID,89,VALID,1.52207,
1999-11-13, 03:09:00,VALID,0,VALID,100,VALID,-0.0509425,VALID,18.8198,VALID,79,VALID,0.571791,
1999-11-13, 03:10:00,VALID,0,VALID,100,VALID,-0.0509425,VALID,18.8002,VALID,38,VALID,0,
1999-11-13, 03:11:01,VALID,0,VALID,100,VALID,-0.0849042,VALID,18.8037,VALID,213,VALID,0,
1999-11-13, 03:12:00,VALID,0,VALID,100,VALID,-0.0509425,VALID,18.7937,VALID,219,VALID,0,
1999-11-13, 03:13:00,VALID,0,VALID,100,VALID,-0.0509425,VALID,18.797,VALID,155,VALID,0,
1999-11-13, 03:14:00,VALID,0,VALID,100,VALID,-0.0849042,VALID,18.8039,VALID,86,VALID,0,
1999-11-13, 03:15:00,VALID,0,VALID,100,VALID,-0.0679233,VALID,18.8034,VALID,97,VALID,0,
1999-11-13, 03:16:00,VALID,0,VALID,100,VALID,-0.0509425,VALID,18.8096,VALID,93,VALID,0,
1999-11-13, 03:17:00,VALID,0,VALID,100,VALID,-0.0509425,VALID,18.8328,VALID,106,VALID,0,
1999-11-13, 03:18:00,VALID,0,VALID,100,VALID,-0.101885,VALID,18.8295,VALID,100,VALID,0.575863,
1999-11-13, 03:19:00,VALID,0,VALID,100,VALID,-0.0849042,VALID,18.8328,VALID,109,VALID,0.895433,
1999-11-13, 03:20:00,VALID,0,VALID,99.9931,VALID,-0.0509425,VALID,18.794,VALID,319,VALID,0.759868,
1999-11-13, 03:21:00,VALID,0,VALID,99.9919,VALID,-0.0339617,VALID,18.7644,VALID,1,VALID,0.336719,
1999-11-13, 03:22:01,VALID,0,VALID,99.971,VALID,-0.0679233,VALID,18.7808,VALID,111,VALID,0.0397135,
1999-11-13, 03:23:00,VALID,0,VALID,99.9873,VALID,-0.0679233,VALID,18.7711,VALID,101,VALID,0,
1999-11-13, 03:24:00,VALID,0,VALID,99.9723,VALID,-0.0849042,VALID,18.787,VALID,98,VALID,0,
1999-11-13, 03:25:00,VALID,0,VALID,99.9545,VALID,-0.0509425,VALID,18.787,VALID,212,VALID,0.285457,
1999-11-13, 03:26:00,VALID,0,VALID,99.9265,VALID,-0.0849042,VALID,18.7776,VALID,177,VALID,0.213742,
1999-11-13, 03:27:00,VALID,0,VALID,99.929,VALID,-0.0849042,VALID,18.7776,VALID,100,VALID,0.668269,
1999-11-13, 03:28:00,VALID,0,VALID,99.9125,VALID,-0.0679233,VALID,18.784,VALID,94,VALID,0.868945,
1999-11-13, 03:29:00,VALID,0,VALID,99.8871,VALID,-0.0679233,VALID,18.7612,VALID,97,VALID,0.415671,
1999-11-13, 03:30:00,VALID,0,VALID,99.8693,VALID,-0.0339617,VALID,18.7582,VALID,79,VALID,0.0415296,
1999-11-13, 03:31:00,VALID,0,VALID,99.8667,VALID,-0.0849042,VALID,18.7683,VALID,268,VALID,0,
1999-11-13, 03:32:00,VALID,0,VALID,99.8337,VALID,-0.0679233,VALID,18.745,VALID,174,VALID,0.00105574,
1999-11-13, 03:33:01,VALID,0,VALID,99.8629,VALID,-0.0339617,VALID,18.7644,VALID,114,VALID,0.00168919,
1999-11-13, 03:34:00,VALID,0,VALID,99.8489,VALID,-0.0679233,VALID,18.7452,VALID,76,VALID,0,
1999-11-13, 03:35:00,VALID,0,VALID,99.6506,VALID,-0.0679233,VALID,18.6933,VALID,90,VALID,0,
1999-11-13, 03:36:00,VALID,0,VALID,99.6022,VALID,-0.0849042,VALID,18.7067,VALID,100,VALID,0.253571,
1999-11-13, 03:37:00,VALID,0,VALID,99.545,VALID,-0.0679233,VALID,18.6875,VALID,93,VALID,0.785262,
1999-11-13, 03:38:00,VALID,0,VALID,99.4051,VALID,-0.0509425,VALID,18.6547,VALID,83,VALID,1.02138,
1999-11-13, 03:39:00,VALID,0,VALID,99.2932,VALID,-0.0849042,VALID,18.6612,VALID,99,VALID,0.646532,
1999-11-13, 03:40:00,VALID,0,VALID,99.2729,VALID,-0.0679233,VALID,18.6908,VALID,92,VALID,0.0853207,
1999-11-13, 03:41:00,VALID,0,VALID,99.2195,VALID,-0.0509425,VALID,18.6642,VALID,92,VALID,0,
1999-11-13, 03:42:00,VALID,0,VALID,99.1915,VALID,-0.0509425,VALID,18.6649,VALID,92,VALID,0,
1999-11-13, 03:43:01,VALID,0,VALID,99.208,VALID,-0.0339617,VALID,18.6547,VALID,96,VALID,0,
1999-11-13, 03:44:01,VALID,0,VALID,99.1902,VALID,0,VALID,18.648,VALID,79,VALID,0,
1999-11-13, 03:45:00,VALID,0,VALID,99.1674,VALID,-0.0339617,VALID,18.6261,VALID,81,VALID,0.0536318,
1999-11-13, 03:46:00,VALID,0,VALID,99.1788,VALID,-0.0169808,VALID,18.6291,VALID,78,VALID,0.621094,
1999-11-13, 03:47:00,VALID,0,VALID,99.2042,VALID,-0.0509425,VALID,18.6453,VALID,87,VALID,0.954527,
1999-11-13, 03:48:00,VALID,0,VALID,99.2411,VALID,-0.0339617,VALID,18.6485,VALID,95,VALID,0.567145,
1999-11-13, 03:49:00,VALID,0,VALID,99.1826,VALID,-0.0339617,VALID,18.6351,VALID,33,VALID,0.115954,
1999-11-13, 03:50:00,VALID,0,VALID,99.0783,VALID,-0.0339617,VALID,18.5963,VALID,73,VALID,0.423109,
1999-11-13, 03:51:00,VALID,0,VALID,98.9474,VALID,-0.0509425,VALID,18.5901,VALID,67,VALID,0.51582,
1999-11-13, 03:52:00,VALID,0,VALID,98.9893,VALID,-0.0169808,VALID,18.6321,VALID,97,VALID,0.91582,
1999-11-13, 03:53:00,VALID,0,VALID,99.0237,VALID,-0.0169808,VALID,18.648,VALID,92,VALID,0.756055,
1999-11-13, 03:54:00,VALID,0,VALID,98.9143,VALID,-0.0169808,VALID,18.6453,VALID,96,VALID,0.836349,
1999-11-13, 03:55:01,VALID,0,VALID,98.8418,VALID,-0.0509425,VALID,18.6483,VALID,105,VALID,0.909856,
1999-11-13, 03:56:00,VALID,0,VALID,98.7312,VALID,-0.0339617,VALID,18.6642,VALID,97,VALID,0.815789,
1999-11-13, 03:57:00,VALID,0,VALID,98.6295,VALID,-0.0339617,VALID,18.6741,VALID,86,VALID,0.560352,
1999-11-13, 03:58:00,VALID,0,VALID,98.398,VALID,-0.0849042,VALID,18.6808,VALID,86,VALID,0.6977,
1999-11-13, 03:59:00,VALID,0,VALID,98.1196,VALID,-0.0169808,VALID,18.6845,VALID,77,VALID,0.790039,
1999-11-13, 04:00:00,VALID,0,VALID,97.9415,VALID,-0.0849042,VALID,18.6739,VALID,91,VALID,1.30449,
1999-11-13, 04:01:00,VALID,0,VALID,97.9822,VALID,-0.0509425,VALID,18.6843,VALID,92,VALID,1.4369,
1999-11-13, 04:02:00,VALID,0,VALID,97.9975,VALID,-0.0679233,VALID,18.6711,VALID,101,VALID,1.02464,
1999-11-13, 04:03:00,VALID,0,VALID,97.85,VALID,-0.0169808,VALID,18.6637,VALID,87,VALID,1.27444,
1999-11-13, 04:04:00,VALID,0,VALID,97.5066,VALID,0,VALID,18.6677,VALID,94,VALID,1.77207,
1999-11-13, 04:05:00,VALID,0,VALID,97.3362,VALID,0,VALID,18.7166,VALID,80,VALID,1.4954,
1999-11-13, 04:06:01,VALID,0,VALID,97.3401,VALID,-0.0169808,VALID,18.7,VALID,84,VALID,1.53063,
1999-11-13, 04:07:00,VALID,0,VALID,97.3833,VALID,-0.0509425,VALID,18.6933,VALID,72,VALID,1.59517,
1999-11-13, 04:08:00,VALID,0,VALID,97.2867,VALID,-0.0509425,VALID,18.6975,VALID,84,VALID,1.40351,
1999-11-13, 04:09:00,VALID,0,VALID,97.4138,VALID,-0.0169808,VALID,18.6744,VALID,91,VALID,1.44721,
1999-11-13, 04:10:00,VALID,0,VALID,97.5931,VALID,0,VALID,18.6649,VALID,101,VALID,1.03378,
1999-11-13, 04:11:00,VALID,0,VALID,97.8055,VALID,-0.0509425,VALID,18.6649,VALID,89,VALID,0.966747,
1999-11-13, 04:12:00,VALID,0,VALID,97.8258,VALID,-0.0339617,VALID,18.6224,VALID,95,VALID,0.730134,
1999-11-13, 04:13:00,VALID,0,VALID,97.9263,VALID,0,VALID,18.6189,VALID,123,VALID,0.38239,
1999-11-13, 04:14:00,VALID,0,VALID,98.0394,VALID,-0.0509425,VALID,18.6127,VALID,125,VALID,0.329564,